Sitka, Alaska, United States (99835)
Lat: 57.05N, Lon: 135.33W
Wx Zone: AKZ023
Local Info
Past Weather Observations for Thursday, March 26, 2015

NOTE: This archive is for the closest National Weather Service station to Sitka. Information may differ from the station used for current weather conditions.

Click here for Long-term Archive

Time Weather Temperature Dewpoint Humidity Pressure Winds Precip Visibility
23:53
Mostly Cloudy
45°F / 7°C 37°F / 3°C 76% 29.92 in
(1013 mb)
ESE 10.4 mph
(ESE 17 kph)
0.00 in
(0.00 mm)
10SM
23:01
Overcast
43°F / 6°C 39°F / 4°C 87% 29.92 in
(1013 mb)
ESE 9.2 mph
(ESE 15 kph)
0.00 in
(0.00 mm)
10SM
22:53
Overcast
Light Rain
43°F / 6°C 39°F / 4°C 87% 29.92 in
(1013 mb)
ESE 12.7 mph
(ESE 20 kph)
0.00 in
(0.00 mm)
10SM
22:41
Overcast
Light Rain
43°F / 6°C 37°F / 3°C 81% 29.92 in
(1013 mb)
SE 11.5 mph
(SE 19 kph)
0.00 in
(0.00 mm)
10SM
21:53
Overcast
43°F / 6°C 39°F / 4°C 87% 29.92 in
(1013 mb)
E 9.2 mph
(E 15 kph)
0.00 in
(0.00 mm)
10SM
20:53
Overcast
45°F / 7°C 39°F / 4°C 81% 29.92 in
(1013 mb)
E 6.9 mph
(E 11 kph)
0.00 in
(0.00 mm)
10SM
20:13
Overcast
45°F / 7°C 39°F / 4°C 81% 29.92 in
(1013 mb)
E 9.2 mph
(E 15 kph)
0.00 in
(0.00 mm)
10SM
20:01
Overcast
45°F / 7°C 39°F / 4°C 81% 29.92 in
(1013 mb)
SSE 6.9 mph
(SSE 11 kph)
0.00 in
(0.00 mm)
10SM
19:53
Overcast
Light Rain
45°F / 7°C 39°F / 4°C 81% 29.92 in
(1013 mb)
SE 3.5 mph
(SE 6 kph)
0.03 in
(0.76 mm)
7SM
18:53
Overcast
46°F / 8°C 39°F / 4°C 76% 29.92 in
(1013 mb)
E 6.9 mph
(E 11 kph)
- 10SM
17:53
Mostly Cloudy
46°F / 8°C 37°F / 3°C 71% 29.92 in
(1013 mb)
SSE 6.9 mph
(SSE 11 kph)
- 10SM
16:53
Mostly Cloudy
46°F / 8°C 39°F / 4°C 76% 29.92 in
(1013 mb)
S 12.7 mph
(S 20 kph)
0.00 in
(0.00 mm)
10SM
15:53
Mostly Cloudy
Light Rain
46°F / 8°C 37°F / 3°C 71% 29.92 in
(1013 mb)
S 8.1 mph
(S 13 kph)
0.01 in
(0.25 mm)
5SM
14:53
Mostly Cloudy
50°F / 10°C 41°F / 5°C 71% 29.92 in
(1013 mb)
SSE 15 mph
(SSE 24 kph)
- 10SM
13:53
Overcast
48°F / 9°C 39°F / 4°C 71% 29.92 in
(1013 mb)
SSE 3.5 mph
(SSE 6 kph)
0.00 in
(0.00 mm)
10SM
12:53
Mostly Cloudy
48°F / 9°C 39°F / 4°C 71% 29.92 in
(1013 mb)
S 8.1 mph
(S 13 kph)
0.00 in
(0.00 mm)
10SM
11:53
Mostly Cloudy
48°F / 9°C 39°F / 4°C 71% 29.89 in
(1012 mb)
S 9.2 mph
(S 15 kph)
0.00 in
(0.00 mm)
10SM
10:53
Overcast
48°F / 9°C 43°F / 6°C 82% 29.89 in
(1012 mb)
S 8.1 mph
(S 13 kph)
- 10SM
10:00
Overcast
46°F / 8°C 41°F / 5°C 82% 29.86 in
(1011 mb)
S 10.4 mph
(S 17 kph)
- 10SM
09:53
Overcast
46°F / 8°C 41°F / 5°C 82% 29.86 in
(1011 mb)
SSE 11.5 mph
(SSE 19 kph)
0.01 in
(0.25 mm)
10SM
09:12
Overcast
Light Rain
45°F / 7°C 43°F / 6°C 93% 29.83 in
(1010 mb)
SSE 8.1 mph
(SSE 13 kph)
0.01 in
(0.25 mm)
4SM
08:53
Overcast
46°F / 8°C 43°F / 6°C 87% 29.83 in
(1010 mb)
S 9.2 mph
(S 15 kph)
0.02 in
(0.51 mm)
7SM
08:20
Overcast
Light Rain
46°F / 8°C 45°F / 7°C 93% 29.8 in
(1009 mb)
S 8.1 mph
(S 13 kph)
0.01 in
(0.25 mm)
5SM
07:56
Overcast
Light Rain
46°F / 8°C 45°F / 7°C 93% 29.8 in
(1009 mb)
S 11.5 mph
(S 19 kph)
0.00 in
(0.00 mm)
3SM
07:55
Overcast
Light Rain
46°F / 8°C 45°F / 7°C 93% 29.8 in
(1009 mb)
S 11.5 mph
(S 19 kph)
0.00 in
(0.00 mm)
2 1/2SM
07:53
Overcast
Light Rain
46°F / 8°C 43°F / 6°C 87% 29.77 in
(1008 mb)
S 10.4 mph
(S 17 kph)
0.12 in
(3.05 mm)
3SM
07:36
Overcast
Heavy Rain
45°F / 7°C 41°F / 5°C 87% 29.77 in
(1008 mb)
SSE 10.4 mph
(SSE 17 kph)
0.08 in
(2.03 mm)
1 3/4SM
07:00
Overcast
Light Rain
45°F / 7°C 41°F / 5°C 87% 29.74 in
(1007 mb)
S 12.7 mph
(S 20 kph)
0.01 in
(0.25 mm)
3SM
06:56
Overcast
Light Rain
45°F / 7°C 41°F / 5°C 87% 29.74 in
(1007 mb)
SSE 11.5 mph
(SSE 19 kph)
0.00 in
(0.00 mm)
2 1/2SM
06:53
Overcast
Rain
45°F / 7°C 41°F / 5°C 87% 29.74 in
(1007 mb)
SE 12.7 mph
(SE 20 kph)
0.07 in
(1.78 mm)
3SM
05:53
Overcast
Rain
45°F / 7°C 41°F / 5°C 87% 29.74 in
(1007 mb)
SE 11.5 mph
(SE 19 kph)
0.14 in
(3.56 mm)
4SM
04:53
Overcast
48°F / 9°C 37°F / 3°C 66% 29.71 in
(1006 mb)
ESE 15 mph
(ESE 24 kph)
- 10SM
03:53
Overcast
46°F / 8°C 39°F / 4°C 76% 29.71 in
(1006 mb)
SSE 11.5 mph
(SSE 19 kph)
- 10SM
02:53
Overcast
46°F / 8°C 39°F / 4°C 76% 29.71 in
(1006 mb)
SE 11.5 mph
(SE 19 kph)
0.00 in
(0.00 mm)
10SM
01:53
Overcast
48°F / 9°C 39°F / 4°C 71% 29.71 in
(1006 mb)
SE 12.7 mph
(SE 20 kph)
0.00 in
(0.00 mm)
10SM
00:53
Overcast
Light Rain
46°F / 8°C 39°F / 4°C 76% 29.71 in
(1006 mb)
SE 11.5 mph
(SE 19 kph)
0.00 in
(0.00 mm)
10SM
Time Weather Temperature Dewpoint Humidity Pressure Winds Precip Visibility


Weather for websites

WeatherForYou.com, LLC is not responsible for any damages or problems caused by this service. Current weather conditions are obtained from the closest station including government and personal stations which may have varying degrees of accuracy. Weather forecasts are derived from the NOAA NDFD. Like all things, this site belongs to Jesus Christ... He just trusts me to maintain it. If you have any questions or comments email webmaster@weatherforyou.com

Copyright © 2015, WeatherForYou.com LLC. All rights reserved.